Wind_Speed
35 33 31 29 27 26 25 25 25 24 25 24 25 25 24 24 24 25 25 25 25 25 25 25 25 25 25 24 25 25 25 26 26 26 26 26 27 27 28 28 28 28 28
37 36 35 33 31 29 29 28 26 25 26 26 26 28 27 27 26 25 26 26 27 27 27 27 27 27 26 26 26 27 27 27 27 27 27 27 27 29 30 30 30 30 31
37 37 36 35 33 31 30 30 28 26 26 27 29 30 28 27 27 26 27 27 29 30 29 29 29 28 28 27 26 27 27 27 27 28 28 28 29 29 30 31 32 32 32
36 37 37 36 34 33 31 31 30 29 29 28 28 29 29 27 26 27 28 29 30 31 31 29 29 28 27 26 24 24 25 26 26 27 28 29 30 30 31 31 33 34 35
34 36 36 36 35 34 32 31 30 31 31 29 27 26 26 26 26 27 27 27 29 29 30 29 27 25 24 24 24 24 24 26 27 28 29 31 32 33 34 35 35 37 38
31 33 34 35 34 34 33 32 31 31 31 29 27 25 25 23 24 25 25 25 26 27 26 26 26 24 23 24 24 25 26 27 28 30 31 33 34 35 37 38 39 40 41
28 29 31 32 32 33 33 32 31 31 30 28 26 25 25 23 21 21 21 23 24 25 24 24 24 24 24 25 26 27 28 29 31 32 33 35 36 38 39 41 42 43 44
26 27 29 30 30 30 31 31 31 29 28 27 26 25 25 23 23 22 22 21 21 21 21 21 23 24 25 26 27 27 29 31 33 34 36 37 38 40 41 43 44 46 46
24 26 27 28 28 29 28 28 28 28 28 27 26 25 24 24 23 23 22 21 20 20 21 23 24 25 26 28 29 29 31 33 34 35 36 38 40 41 42 43 44 46 47
20 22 23 24 25 26 26 26 27 28 28 28 26 25 24 23 23 22 23 22 21 21 21 22 24 26 28 29 31 32 34 35 36 37 38 39 40 41 42 43 45 46 47
21 22 23 24 25 25 26 27 28 27 26 25 25 24 24 24 23 22 22 22 22 23 24 26 28 29 30 32 33 34 35 36 37 37 38 39 40 41 42 43 44 46 47
20 20 21 22 24 24 25 25 26 25 24 24 24 24 24 24 23 23 23 23 24 25 27 28 30 31 33 34 35 35 36 37 38 38 38 39 40 41 42 42 43 44 45
18 20 21 23 23 24 24 24 24 24 24 24 25 25 25 25 24 24 25 26 26 28 29 30 32 33 34 35 35 36 36 37 37 37 38 38 39 39 39 40 41 41 42
17 19 20 22 23 23 23 23 24 24 24 24 25 25 26 26 25 26 26 27 28 29 31 32 33 33 34 34 34 35 35 35 35 36 36 36 37 37 37 38 38 39 39
14 16 17 18 20 20 21 22 23 23 23 24 25 25 26 26 26 27 28 29 30 30 31 32 33 33 33 32 32 33 33 33 34 34 34 34 34 34 34 35 35 35 35
13 13 15 16 18 20 20 21 22 23 24 25 25 25 26 27 27 28 28 29 29 30 30 30 30 30 30 30 31 31 32 32 31 31 31 31 31 32 32 32 32 32 31
12 14 15 16 17 18 20 21 22 23 24 25 25 26 26 27 27 27 27 28 28 29 28 29 29 29 29 29 30 30 30 29 29 29 29 29 29 29 29 28 28 27 27
13 14 15 16 17 18 20 21 22 22 23 23 23 24 24 24 25 25 26 26 27 27 27 27 27 27 27 27 28 28 27 27 27 27 26 26 26 25 25 25 24 24 23
13 14 15 16 17 18 19 20 20 20 20 21 21 21 22 22 23 23 24 24 24 25 25 25 25 25 25 25 25 25 25 25 25 24 23 23 23 22 22 21 21 21 21
12 13 13 15 16 17 18 18 18 19 19 19 20 20 21 21 22 22 23 23 22 22 22 22 22 22 22 22 22 22 22 22 21 21 20 20 19 19 19 19 19 19 19
11 12 12 13 14 15 16 17 17 18 18 19 19 19 20 20 21 21 21 21 20 20 20 20 20 20 20 20 20 20 20 20 19 18 18 17 17 17 17 17 18 18 18
10 11 11 12 13 14 14 15 15 16 17 17 18 18 18 19 19 19 19 19 19 18 18 18 17 17 17 17 17 17 17 17 16 15 16 16 16 16 16 16 16 17 16
9 10 10 11 11 12 13 14 14 15 15 16 16 17 17 18 18 18 18 18 17 17 16 16 15 15 15 15 15 15 15 14 14 14 14 14 14 15 15 15 16 16 16
8 9 10 10 11 12 12 13 13 14 14 15 15 16 17 17 17 17 17 16 16 15 14 14 13 13 13 13 13 13 13 12 12 12 12 13 13 14 14 15 15 15 14
7 8 9 10 10 11 12 12 13 13 14 15 15 16 16 15 15 15 15 14 14 13 12 12 12 11 11 11 11 11 11 11 11 11 12 12 12 13 14 14 15 14 13
7 7 8 8 9 9 10 12 13 13 14 14 14 13 13 13 13 12 12 11 11 11 10 10 10 10 10 10 9 9 10 10 10 11 11 12 12 13 13 13 13 13 13
Wind_Direction
229 231 232 234 238 243 247 251 250 247 244 242 243 241 242 242 242 243 243 242 242 243 245 247 250 254 257 260 262 266 269 271 274 276 279 281 282 282 281 281 279 278 278
228 229 232 235 241 245 249 252 254 253 249 247 245 241 243 244 243 245 246 245 244 243 245 249 252 254 257 260 264 267 268 270 272 276 279 281 282 282 282 281 279 278 279
229 229 231 235 240 245 249 254 257 255 252 250 248 244 244 244 245 247 249 248 246 246 247 250 254 256 258 261 265 269 270 273 274 275 279 280 281 282 283 281 279 279 280
227 228 231 234 238 242 247 253 256 255 255 254 250 247 247 246 246 249 249 249 248 248 249 251 255 256 258 262 267 270 274 275 276 277 279 282 282 284 284 283 282 282 283
227 228 231 234 237 241 244 248 252 257 259 256 254 253 247 247 248 250 250 251 250 249 250 253 256 257 260 265 269 272 275 278 279 281 282 283 283 284 285 285 285 285 285
226 228 231 234 237 241 244 245 248 253 257 257 260 257 257 257 256 256 254 253 253 253 253 256 258 262 264 269 273 275 277 280 282 283 284 284 285 286 286 285 285 285 285
227 228 230 232 235 238 241 246 250 255 260 261 263 261 266 265 266 268 264 259 257 256 258 262 263 265 268 270 273 277 278 280 282 283 284 284 284 284 285 285 285 285 286
229 229 230 231 233 235 240 245 251 255 261 264 265 267 270 270 271 271 272 271 265 262 265 266 266 268 270 272 276 279 280 281 283 284 285 285 285 285 285 285 285 286 286
230 229 232 234 235 237 241 247 250 256 259 261 263 266 268 271 273 272 271 271 269 269 270 272 273 275 276 278 280 281 282 284 285 286 286 286 286 286 286 286 286 287 287
235 235 235 236 237 239 243 247 250 255 257 259 261 264 266 269 269 269 268 268 269 274 278 280 282 282 283 283 283 284 284 285 287 287 288 288 288 287 287 288 289 289 288
243 239 238 238 240 243 247 250 252 254 256 257 259 263 267 268 268 269 269 271 274 278 280 282 283 285 285 286 286 287 288 288 289 289 289 290 290 290 290 290 290 289 289
247 242 241 241 242 244 248 249 250 251 254 257 260 264 266 266 267 269 272 275 277 278 281 283 285 286 288 288 289 290 291 291 290 291 291 291 291 291 291 291 291 291 292
250 245 244 243 243 246 249 250 253 255 256 258 261 264 267 268 270 271 273 276 279 281 282 283 285 287 288 289 290 291 292 292 291 292 292 292 292 292 292 292 293 294 295
247 244 242 241 243 245 248 251 255 256 257 259 262 264 266 269 271 273 275 277 279 281 283 285 287 288 289 290 291 292 293 292 293 294 293 293 292 292 292 294 295 296 296
244 243 246 247 246 249 252 254 254 255 257 260 262 265 267 269 271 274 276 278 280 282 284 285 286 288 290 291 292 293 294 294 294 293 293 293 294 294 295 296 297 298 299
255 252 252 250 247 249 253 254 257 259 261 264 265 267 269 270 272 274 275 278 280 281 283 285 287 288 289 290 292 293 294 295 294 294 295 295 296 297 298 299 299 300 302
260 258 254 251 251 254 255 257 259 261 264 265 266 267 269 272 274 275 276 278 280 282 284 286 287 289 289 290 291 292 293 294 295 296 297 298 299 300 302 303 304 305 307
252 253 254 255 258 260 259 260 262 263 266 267 268 270 272 273 275 277 278 280 282 284 286 287 288 289 289 291 292 294 294 295 297 299 300 301 302 303 305 306 307 308 310
259 256 256 258 261 262 262 264 266 267 269 270 271 272 274 276 277 278 280 281 283 285 286 287 288 289 290 293 294 295 297 298 300 301 301 303 305 306 308 310 312 314 315
260 259 260 260 262 263 264 267 269 271 272 273 274 275 275 276 277 279 281 282 283 284 285 287 288 290 292 293 294 296 298 300 301 301 303 305 308 310 312 314 316 319 320
261 264 264 264 265 266 269 271 273 275 275 276 276 276 277 278 278 280 281 282 283 285 286 288 290 292 294 296 297 299 300 301 302 303 306 309 311 314 316 319 321 323 324
265 270 271 270 270 272 273 274 276 276 277 278 279 279 280 280 280 280 281 283 284 285 286 289 292 295 298 300 301 302 304 304 304 306 310 313 316 318 321 323 325 327 329
277 276 275 276 276 275 275 277 278 279 279 280 280 280 281 282 282 281 281 281 281 283 286 290 293 296 299 301 303 305 306 306 306 309 313 316 319 322 324 326 328 330 331
286 281 279 279 280 280 279 281 281 282 281 281 282 283 283 283 283 281 280 280 280 281 283 288 292 296 299 302 306 309 310 310 311 314 317 320 323 326 328 329 331 333 334
302 293 288 285 283 283 283 284 284 284 284 286 287 287 286 286 285 282 280 279 279 278 282 287 292 297 300 304 309 313 316 317 317 320 323 326 328 330 331 332 334 336 337
320 304 298 296 293 291 290 290 288 287 289 291 292 292 292 292 289 286 282 279 276 276 280 285 291 295 299 304 310 316 321 322 323 325 328 329 330 331 333 335 337 338 338
Height
5807 5811 5815 5818 5821 5823 5825 5826 5826 5827 5829 5831 5832 5834 5835 5837 5838 5840 5841 5842 5843 5845 5846 5847 5847 5848 5848 5849 5849 5849 5849 5848 5848 5847 5846 5845 5844 5843 5842 5841 5840 5839 5837
5799 5804 5809 5813 5816 5818 5820 5821 5821 5822 5824 5825 5826 5827 5829 5830 5832 5834 5835 5836 5837 5839 5840 5841 5841 5842 5843 5843 5843 5843 5843 5842 5841 5841 5840 5839 5838 5836 5835 5834 5833 5832 5831
5792 5798 5803 5807 5810 5813 5815 5816 5816 5817 5818 5819 5820 5821 5822 5823 5825 5828 5829 5829 5831 5832 5833 5834 5835 5836 5836 5837 5837 5837 5836 5836 5835 5834 5833 5832 5831 5830 5828 5827 5826 5824 5823
5785 5791 5796 5800 5803 5807 5809 5811 5811 5812 5812 5812 5813 5814 5815 5817 5819 5821 5822 5823 5824 5826 5827 5828 5829 5830 5830 5830 5830 5830 5830 5829 5828 5827 5826 5825 5824 5822 5821 5820 5818 5817 5815
5779 5784 5789 5793 5797 5800 5803 5805 5806 5807 5806 5806 5807 5808 5809 5811 5812 5814 5815 5817 5817 5819 5821 5822 5823 5823 5824 5824 5824 5824 5823 5823 5822 5821 5819 5818 5816 5814 5813 5811 5810 5808 5806
5773 5778 5782 5786 5790 5793 5796 5798 5800 5801 5800 5801 5803 5804 5804 5804 5806 5808 5809 5811 5812 5812 5814 5815 5816 5817 5817 5818 5818 5818 5817 5816 5815 5813 5812 5810 5809 5807 5805 5803 5801 5799 5797
5768 5772 5776 5779 5783 5786 5789 5791 5793 5794 5795 5795 5797 5798 5799 5800 5801 5803 5804 5805 5805 5806 5808 5809 5809 5810 5811 5811 5811 5811 5810 5809 5808 5806 5804 5802 5800 5798 5796 5794 5791 5789 5786
5763 5766 5770 5773 5777 5780 5783 5785 5786 5788 5789 5790 5791 5793 5794 5794 5796 5797 5798 5799 5799 5800 5802 5803 5803 5804 5804 5804 5804 5803 5802 5801 5799 5798 5795 5793 5791 5789 5786 5784 5781 5778 5775
5758 5761 5764 5768 5771 5774 5777 5779 5780 5781 5783 5785 5786 5788 5789 5789 5791 5792 5792 5793 5794 5795 5796 5797 5797 5797 5797 5797 5796 5795 5794 5792 5791 5789 5786 5784 5781 5779 5776 5773 5770 5767 5763
5753 5756 5759 5762 5765 5768 5770 5773 5774 5775 5776 5778 5780 5782 5782 5783 5785 5785 5786 5787 5788 5789 5790 5790 5790 5790 5789 5789 5788 5786 5784 5783 5781 5779 5777 5774 5771 5768 5765 5762 5758 5755 5751
5749 5751 5753 5756 5759 5762 5764 5766 5768 5769 5770 5772 5773 5775 5776 5777 5779 5780 5780 5781 5782 5783 5783 5783 5783 5782 5781 5780 5779 5777 5776 5774 5772 5769 5767 5764 5761 5757 5754 5750 5746 5743 5739
5744 5746 5748 5750 5753 5755 5758 5760 5761 5763 5764 5766 5767 5769 5770 5771 5772 5774 5774 5774 5775 5775 5775 5775 5775 5774 5773 5771 5770 5768 5766 5764 5762 5759 5756 5753 5750 5746 5743 5739 5735 5731 5726
5739 5740 5742 5745 5747 5750 5751 5753 5755 5757 5758 5760 5761 5763 5764 5765 5766 5767 5767 5767 5767 5767 5767 5767 5766 5765 5763 5762 5760 5758 5756 5754 5751 5748 5745 5742 5739 5735 5732 5728 5724 5719 5715
5734 5735 5737 5739 5741 5743 5745 5747 5749 5750 5752 5753 5755 5756 5757 5758 5759 5759 5760 5760 5760 5759 5759 5758 5757 5756 5754 5752 5750 5748 5746 5743 5741 5738 5735 5732 5728 5725 5721 5717 5713 5709 5705
5729 5730 5732 5734 5736 5737 5739 5741 5742 5744 5746 5747 5748 5749 5750 5751 5751 5751 5752 5752 5751 5751 5750 5749 5748 5747 5745 5743 5741 5739 5736 5734 5731 5728 5725 5722 5718 5714 5711 5707 5703 5699 5695
5725 5726 5727 5729 5730 5732 5733 5735 5736 5737 5739 5740 5741 5742 5743 5743 5743 5743 5743 5743 5743 5742 5742 5741 5739 5738 5736 5734 5732 5730 5727 5725 5722 5719 5716 5712 5709 5706 5702 5698 5695 5691 5687
5721 5721 5722 5724 5725 5726 5728 5729 5730 5731 5732 5733 5734 5734 5735 5736 5736 5736 5736 5735 5735 5734 5733 5732 5731 5729 5727 5725 5723 5721 5719 5716 5713 5710 5707 5704 5701 5697 5694 5690 5687 5683 5680
5717 5718 5718 5719 5720 5721 5722 5723 5724 5725 5726 5726 5727 5727 5727 5728 5728 5728 5728 5727 5726 5726 5725 5724 5722 5721 5719 5717 5715 5713 5711 5708 5706 5703 5700 5697 5694 5690 5687 5684 5680 5677 5674
5713 5713 5714 5715 5715 5716 5716 5717 5718 5718 5719 5719 5720 5720 5720 5720 5720 5720 5720 5720 5719 5718 5717 5716 5715 5713 5711 5709 5708 5706 5704 5701 5699 5696 5693 5690 5687 5684 5681 5678 5675 5672 5669
5709 5709 5709 5710 5710 5711 5711 5712 5712 5713 5713 5713 5714 5714 5714 5714 5714 5713 5713 5712 5712 5711 5710 5709 5708 5706 5705 5703 5701 5699 5698 5695 5693 5690 5688 5685 5683 5680 5676 5674 5670 5667 5664
5705 5705 5705 5706 5706 5706 5706 5707 5707 5707 5707 5707 5707 5707 5707 5707 5707 5706 5706 5705 5705 5704 5704 5703 5702 5700 5699 5697 5696 5694 5692 5690 5688 5686 5683 5681 5678 5675 5672 5670 5667 5663 5660
5701 5701 5702 5702 5702 5702 5702 5702 5702 5702 5702 5702 5702 5702 5701 5701 5700 5700 5700 5699 5699 5699 5698 5697 5696 5695 5694 5692 5690 5689 5687 5685 5683 5681 5679 5677 5674 5672 5669 5666 5663 5660 5657
5698 5698 5698 5698 5698 5698 5698 5698 5698 5697 5697 5697 5697 5696 5696 5695 5695 5694 5694 5694 5693 5693 5693 5692 5692 5691 5689 5688 5686 5685 5683 5681 5679 5677 5675 5673 5671 5668 5665 5663 5660 5657 5654
5696 5695 5695 5695 5695 5694 5694 5694 5693 5693 5693 5692 5692 5691 5691 5690 5689 5689 5688 5688 5688 5688 5688 5688 5687 5686 5685 5684 5682 5681 5679 5677 5675 5674 5672 5670 5667 5665 5662 5660 5657 5654 5651
5693 5693 5692 5692 5691 5691 5690 5690 5689 5689 5688 5688 5687 5686 5686 5685 5684 5683 5683 5683 5683 5684 5684 5684 5683 5682 5681 5680 5679 5678 5676 5674 5672 5671 5669 5667 5665 5662 5660 5657 5654 5652 5649
5691 5690 5690 5689 5688 5688 5687 5686 5685 5685 5684 5683 5682 5681 5681 5680 5679 5679 5679 5679 5679 5679 5679 5679 5679 5679 5678 5677 5676 5675 5673 5672 5670 5668 5666 5664 5662 5660 5657 5655 5652 5650 5647